Flag for Austria Weather past 2 weeks in Fürstenfeld, Styria, Austria

Now
57 °F

Refreshingly cool.


Feels Like: 57 °F
Forecast: 37 / 61 °F
Wind: 5 mph from Southwest

Location: Murska Sobota

Current Time: Mar 30, 2015 at 1:29:48 PM

Latest Report: Mar 30, 2015 at 11:00 AM


Visibility: N/A

Pressure: 29.47 "Hg

Humidity: 50%

Dew point: 39 °F

Location of FürstenfeldLocation

Historic Weather in Fürstenfeld — Graph

°F

Fürstenfeld temperature yesterday

Maximum temperature yesterday: 61 °F (at 5:00 PM)
Minimum temperature yesterday: 31 °F (at 5:00 AM)
Average temperature yesterday: 48 °F

Past Weeks' High & Low Weather Summary

 TemperatureHumidityPressure
High65 °F (Mar 26, 3:00 PM)100% (Mar 27, 4:00 AM)30.52 "Hg (Mar 27, 4:00 AM)
Low27 °F (Mar 20, 6:00 AM)33% (Mar 18, 3:00 PM)29.47 "Hg (Mar 30, 11:00 AM)
Average46 °F68%30.08 "Hg
* Reported Mar 15 10:00 AM — Mar 30 11:00 AM, Fürstenfeld, Weather by CustomWeather, © 2015

Note: Actual official high and low records may vary slightly from our data, if they occured in-between our weather recording intervals... More about our weather records

Advertising

Fürstenfeld weather history for previous 24 hours

 ConditionsComfort  
Time TempWeatherWind HumidityBarometerVisibility
11:00 AM
Mon, Mar 30
57 °FRefreshingly cool.5 mph50%29.47 "HgN/A
10:00 AM53 °FCool.3 mph55%29.53 "HgN/A
9:00 AM53 °FCool.3 mph52%29.53 "HgN/A
8:00 AM53 °FOvercast.6 mph52%29.50 "Hg12 mi
7:00 AM53 °FOvercast.6 mph51%29.54 "Hg6 mi
6:00 AM53 °FCool.3 mph54%29.53 "HgN/A
5:00 AM53 °FCool.3 mph56%29.55 "HgN/A
4:00 AM52 °FCool.2 mph55%29.55 "HgN/A
3:00 AM52 °FCool.2 mph50%29.58 "HgN/A
2:00 AM53 °FCool.5 mph45%29.59 "HgN/A
1:00 AM54 °FCool.5 mph44%29.62 "HgN/A
12:00 AM52 °FCool.1 mph57%29.65 "HgN/A
11:00 PM
Sun, Mar 29
54 °FCool.1 mph50%29.66 "HgN/A
10:00 PM57 °FRefreshingly cool.3 mph46%29.66 "HgN/A
9:00 PM55 °FRefreshingly cool.2 mph53%29.71 "HgN/A
8:00 PM57 °FOvercast.1 mph48%29.71 "Hg12 mi
7:00 PM59 °FRefreshingly cool.1 mph44%29.71 "HgN/A
6:00 PM61 °FRefreshingly cool.2 mph42%29.72 "HgN/A
5:00 PM61 °FRefreshingly cool.3 mph41%29.75 "HgN/A
4:00 PM60 °FRefreshingly cool.3 mph46%29.76 "HgN/A
3:00 PM60 °FScattered clouds.5 mph42%29.80 "Hg12 mi
2:00 PM60 °FPartly sunny.3 mph47%29.83 "Hg12 mi
1:00 PM57 °FRefreshingly cool.5 mph43%29.85 "HgN/A
Weather by CustomWeather, © 2015

See weather overviewHow to use our weather pages